TimeEST,TemperatureF,Dew PointF,Humidity,Sea Level PressureIn,VisibilityMPH,Wind Direction,Wind SpeedMPH,Gust SpeedMPH,PrecipitationIn,Events,Conditions,WindDirDegrees,DateUTC
12:54 AM,21.9,1.9,42,30.21,10.0,SSE,3.5,-,N/A,,Partly Cloudy,160,2013-02-11 05:54:00
1:54 AM,25.0,1.9,37,30.18,10.0,SSE,5.8,-,N/A,,Clear,160,2013-02-11 06:54:00
2:54 AM,28.0,1.9,33,30.13,10.0,SSE,9.2,-,N/A,,Overcast,160,2013-02-11 07:54:00
3:54 AM,28.0,1.9,33,30.09,10.0,South,11.5,-,N/A,,Overcast,170,2013-02-11 08:54:00
4:54 AM,28.9,1.9,32,30.05,10.0,South,13.8,19.6,N/A,,Partly Cloudy,180,2013-02-11 09:54:00
5:54 AM,30.0,3.0,32,30.02,10.0,South,13.8,20.7,N/A,,Mostly Cloudy,180,2013-02-11 10:54:00
6:54 AM,30.9,5.0,33,29.99,10.0,South,12.7,-,N/A,,Partly Cloudy,180,2013-02-11 11:54:00
7:54 AM,30.9,6.1,35,29.96,10.0,South,13.8,25.3,N/A,,Mostly Cloudy,180,2013-02-11 12:54:00
8:54 AM,32.0,8.1,37,29.94,10.0,South,12.7,-,N/A,,Mostly Cloudy,180,2013-02-11 13:54:00
9:43 AM,30.2,21.2,69,29.88,2.5,South,19.6,27.6,0.00,Snow,Light Snow,180,2013-02-11 14:43:00
9:48 AM,30.2,21.2,69,29.88,4.0,South,15.0,26.5,0.00,Snow,Light Snow,170,2013-02-11 14:48:00
9:54 AM,30.0,21.9,72,29.89,6.0,South,17.3,-,0.00,Snow,Light Snow,170,2013-02-11 14:54:00
10:51 AM,32.0,26.6,80,29.84,1.5,South,15.0,25.3,0.01,Snow,Light Snow,190,2013-02-11 15:51:00
10:54 AM,32.0,26.1,79,29.85,1.5,South,15.0,25.3,0.01,Snow,Light Snow,180,2013-02-11 15:54:00
11:01 AM,32.0,26.6,80,29.83,3.0,South,13.8,23.0,0.00,Snow,Light Snow,180,2013-02-11 16:01:00
11:24 AM,32.0,26.6,80,29.83,5.0,SSW,8.1,-,0.00,,Haze,210,2013-02-11 16:24:00
11:39 AM,33.8,28.4,81,29.81,4.0,South,12.7,-,0.00,Snow,Light Snow,190,2013-02-11 16:39:00
11:54 AM,34.0,28.9,82,29.82,7.0,SSW,16.1,21.9,0.00,,Overcast,200,2013-02-11 16:54:00
12:14 PM,35.6,30.2,81,29.77,10.0,South,17.3,27.6,N/A,,Overcast,190,2013-02-11 17:14:00
12:54 PM,36.0,30.0,79,29.75,10.0,South,19.6,28.8,N/A,,Overcast,180,2013-02-11 17:54:00
1:54 PM,37.0,32.0,82,29.71,10.0,South,16.1,26.5,N/A,,Overcast,190,2013-02-11 18:54:00
2:34 PM,37.4,33.8,87,29.67,10.0,South,18.4,25.3,0.01,Rain,Light Rain,180,2013-02-11 19:34:00
2:54 PM,37.9,33.1,83,29.67,10.0,South,16.1,25.3,0.01,,Mostly Cloudy,190,2013-02-11 19:54:00
3:54 PM,39.0,33.1,79,29.65,10.0,South,16.1,25.3,N/A,,Mostly Cloudy,190,2013-02-11 20:54:00
4:54 PM,39.0,34.0,82,29.61,10.0,South,13.8,20.7,N/A,,Scattered Clouds,180,2013-02-11 21:54:00
5:54 PM,39.0,34.0,82,29.62,10.0,SSW,10.4,-,N/A,,Mostly Cloudy,200,2013-02-11 22:54:00
6:01 PM,39.2,33.8,81,29.60,10.0,SSW,10.4,-,N/A,,Overcast,200,2013-02-11 23:01:00
6:54 PM,39.0,35.1,86,29.61,10.0,SSW,10.4,-,N/A,,Overcast,200,2013-02-11 23:54:00
7:54 PM,37.9,35.1,89,29.61,8.0,SSW,9.2,-,0.03,Rain,Light Rain,200,2013-02-12 00:54:00
8:54 PM,37.9,35.1,89,29.62,7.0,SSW,6.9,-,0.03,Rain,Light Rain,200,2013-02-12 01:54:00
9:54 PM,37.0,35.1,93,29.62,9.0,SW,11.5,-,0.00,,Overcast,230,2013-02-12 02:54:00
10:54 PM,37.9,28.9,70,29.62,10.0,SW,5.8,-,N/A,,Overcast,230,2013-02-12 03:54:00
11:54 PM,37.0,30.0,76,29.61,10.0,North,5.8,-,N/A,,Overcast,360,2013-02-12 04:54:00